Location: Unspecified
(0.0000°N, 0.0000°E)
Time: 02:47:08
(UTC+00:00)

deb r/b Ablestar - Pass Details

Date: 06 March 2026
Orbit: 937 x 1853 km, 67.2° (Epoch: 12 April)

Event Time Altitude Azimuth Distance (km) Brightness Sun altitude
Rises 18:52:21 0° 17° (NNE) 5,070 ? -10.2°
Reaches altitude 10° 18:57:34 10° 38° (NE) 4,168 ? -11.5°
Maximum altitude 19:03:09 15° 70° (ENE) 3,781 ? -12.9°
Enters shadow 19:04:06 15° 76° (ENE) 3,795 ? -13.2°
